Time,TemperatureF,DewpointF,PressureIn,WindDirection,WindDirectionDegrees,WindSpeedMPH,WindSpeedGustMPH,Humidity,HourlyPrecipIn,Conditions,Clouds,dailyrainin,SoftwareType,DateUTC
2013-12-22 00:02:00,21.8,18.0,25.63,NNW,338,10.0,13.0,85,0.00,,,0.00,weatherlink.com 1.10,2013-12-22 07:02:00,
2013-12-22 00:17:00,21.5,18.0,25.64,NW,317,5.0,9.0,86,0.00,,,0.00,weatherlink.com 1.10,2013-12-22 07:17:00,
2013-12-22 00:32:00,21.0,18.0,25.64,NW,318,5.0,12.0,86,0.00,,,0.00,weatherlink.com 1.10,2013-12-22 07:32:00,
2013-12-22 00:47:00,21.2,17.0,25.64,North,349,9.0,15.0,83,0.00,,,0.00,weatherlink.com 1.10,2013-12-22 07:47:00,
2013-12-22 01:02:00,21.5,17.0,25.64,NW,304,14.0,21.0,83,0.00,,,0.00,weatherlink.com 1.10,2013-12-22 08:02:00,
2013-12-22 01:17:00,21.3,17.0,25.64,NNW,344,9.0,18.0,83,0.00,,,0.00,weatherlink.com 1.10,2013-12-22 08:17:00,
2013-12-22 01:32:00,21.0,17.0,25.65,NNE,12,7.0,18.0,84,0.00,,,0.00,weatherlink.com 1.10,2013-12-22 08:32:00,
2013-12-22 01:47:00,20.9,17.0,25.66,NNE,16,6.0,16.0,83,0.00,,,0.00,weatherlink.com 1.10,2013-12-22 08:47:00,
2013-12-22 02:02:00,20.5,16.0,25.66,NNW,344,7.0,13.0,83,0.00,,,0.00,weatherlink.com 1.10,2013-12-22 09:02:00,
2013-12-22 02:17:00,20.2,16.0,25.67,North,354,6.0,12.0,83,0.00,,,0.00,weatherlink.com 1.10,2013-12-22 09:17:00,
2013-12-22 02:32:00,19.8,16.0,25.67,NNW,344,8.0,14.0,84,0.00,,,0.00,weatherlink.com 1.10,2013-12-22 09:32:00,
2013-12-22 02:47:00,19.2,15.0,25.67,NW,316,4.0,11.0,84,0.00,,,0.00,weatherlink.com 1.10,2013-12-22 09:47:00,
2013-12-22 03:02:00,19.0,15.0,25.68,NNW,330,5.0,11.0,84,0.00,,,0.00,weatherlink.com 1.10,2013-12-22 10:02:00,
2013-12-22 03:17:00,18.9,15.0,25.68,North,359,7.0,13.0,84,0.00,,,0.00,weatherlink.com 1.10,2013-12-22 10:17:00,
2013-12-22 03:32:00,19.2,15.0,25.67,NW,325,8.0,14.0,85,0.00,,,0.00,weatherlink.com 1.10,2013-12-22 10:32:00,
2013-12-22 03:47:00,18.8,15.0,25.68,NE,56,10.0,13.0,84,0.00,,,0.00,weatherlink.com 1.10,2013-12-22 10:47:00,
2013-12-22 04:03:00,18.1,14.0,25.68,NNW,330,5.0,10.0,85,0.00,,,0.00,weatherlink.com 1.10,2013-12-22 11:03:00,
2013-12-22 04:18:00,17.9,14.0,25.69,NNW,330,7.0,11.0,85,0.00,,,0.00,weatherlink.com 1.10,2013-12-22 11:18:00,
2013-12-22 04:33:00,17.7,14.0,25.70,NE,47,5.0,10.0,86,0.00,,,0.00,weatherlink.com 1.10,2013-12-22 11:33:00,
2013-12-22 04:48:00,17.4,14.0,25.70,NE,42,3.0,8.0,86,0.00,,,0.00,weatherlink.com 1.10,2013-12-22 11:48:00,
2013-12-22 05:03:00,17.4,14.0,25.71,North,355,4.0,6.0,86,0.00,,,0.00,weatherlink.com 1.10,2013-12-22 12:03:00,
2013-12-22 05:18:00,17.7,14.0,25.71,NW,316,2.0,9.0,86,0.00,,,0.00,weatherlink.com 1.10,2013-12-22 12:18:00,
2013-12-22 05:33:00,17.6,14.0,25.71,North,1,3.0,6.0,86,0.00,,,0.00,weatherlink.com 1.10,2013-12-22 12:33:00,
2013-12-22 05:48:00,17.7,14.0,25.72,North,352,7.0,9.0,86,0.00,,,0.00,weatherlink.com 1.10,2013-12-22 12:48:00,
2013-12-22 06:03:00,17.9,14.0,25.72,NW,307,1.0,7.0,86,0.00,,,0.00,weatherlink.com 1.10,2013-12-22 13:03:00,
2013-12-22 06:18:00,18.1,15.0,25.71,NNW,344,2.0,5.0,86,0.00,,,0.00,weatherlink.com 1.10,2013-12-22 13:18:00,
2013-12-22 06:33:00,17.7,14.0,25.73,NW,312,1.0,5.0,86,0.00,,,0.00,weatherlink.com 1.10,2013-12-22 13:33:00,
2013-12-22 06:48:00,17.7,15.0,25.74,North,351,0.0,1.0,87,0.00,,,0.00,weatherlink.com 1.10,2013-12-22 13:48:00,
2013-12-22 07:04:00,16.8,14.0,25.74,SE,128,0.0,3.0,87,0.00,,,0.00,weatherlink.com 1.10,2013-12-22 14:04:00,
2013-12-22 07:18:00,16.6,14.0,25.74,SW,221,1.0,5.0,89,0.00,,,0.00,weatherlink.com 1.10,2013-12-22 14:18:00,
2013-12-22 07:33:00,17.0,14.0,25.74,West,261,0.0,2.0,89,0.00,,,0.00,weatherlink.com 1.10,2013-12-22 14:33:00,
2013-12-22 07:48:00,17.6,14.0,25.75,ESE,123,0.0,1.0,87,0.00,,,0.00,weatherlink.com 1.10,2013-12-22 14:48:00,
2013-12-22 08:03:00,16.8,14.0,25.75,SSE,156,2.0,2.0,88,0.00,,,0.00,weatherlink.com 1.10,2013-12-22 15:03:00,
2013-12-22 08:18:00,16.8,14.0,25.75,ESE,114,3.0,4.0,89,0.00,,,0.00,weatherlink.com 1.10,2013-12-22 15:18:00,
2013-12-22 08:33:00,18.0,15.0,25.75,East,81,0.0,2.0,88,0.00,,,0.00,weatherlink.com 1.10,2013-12-22 15:33:00,
2013-12-22 08:48:00,19.0,16.0,25.76,SSW,212,2.0,4.0,87,0.00,,,0.00,weatherlink.com 1.10,2013-12-22 15:48:00,
2013-12-22 09:03:00,19.6,16.0,25.76,WSW,250,2.0,4.0,85,0.00,,,0.00,weatherlink.com 1.10,2013-12-22 16:03:00,
2013-12-22 09:18:00,20.7,17.0,25.77,WSW,249,0.0,2.0,85,0.00,,,0.00,weatherlink.com 1.10,2013-12-22 16:18:00,
2013-12-22 09:33:00,22.8,18.0,25.77,NW,319,2.0,3.0,80,0.00,,,0.00,weatherlink.com 1.10,2013-12-22 16:33:00,
2013-12-22 09:48:00,24.2,18.0,25.77,West,269,2.0,2.0,77,0.00,,,0.00,weatherlink.com 1.10,2013-12-22 16:48:00,
2013-12-22 10:03:00,23.9,17.0,25.76,WNW,302,1.0,3.0,75,0.00,,,0.00,weatherlink.com 1.10,2013-12-22 17:03:00,
2013-12-22 10:18:00,25.9,18.0,25.77,WNW,300,0.0,4.0,72,0.00,,,0.00,weatherlink.com 1.10,2013-12-22 17:18:00,
2013-12-22 10:33:00,25.4,18.0,25.76,WSW,253,2.0,6.0,72,0.00,,,0.00,weatherlink.com 1.10,2013-12-22 17:33:00,
2013-12-22 10:48:00,26.7,18.0,25.76,WNW,299,2.0,3.0,71,0.00,,,0.00,weatherlink.com 1.10,2013-12-22 17:48:00,
2013-12-22 11:03:00,26.6,18.0,25.75,WNW,297,3.0,5.0,71,0.00,,,0.00,weatherlink.com 1.10,2013-12-22 18:03:00,
2013-12-22 11:18:00,27.9,19.0,25.75,WSW,245,2.0,5.0,69,0.00,,,0.00,weatherlink.com 1.10,2013-12-22 18:18:00,
2013-12-22 11:33:00,28.8,20.0,25.74,West,261,1.0,4.0,69,0.00,,,0.00,weatherlink.com 1.10,2013-12-22 18:33:00,
2013-12-22 11:48:00,29.2,20.0,25.73,WNW,293,1.0,8.0,68,0.00,,,0.00,weatherlink.com 1.10,2013-12-22 18:48:00,
2013-12-22 12:03:00,29.1,20.0,25.73,West,259,1.0,6.0,68,0.00,,,0.00,weatherlink.com 1.10,2013-12-22 19:03:00,
2013-12-22 12:19:00,29.2,19.0,25.73,WNW,287,2.0,3.0,66,0.00,,,0.00,weatherlink.com 1.10,2013-12-22 19:19:00,
2013-12-22 12:34:00,30.0,20.0,25.73,SSW,207,0.0,1.0,66,0.00,,,0.00,weatherlink.com 1.10,2013-12-22 19:34:00,
2013-12-22 12:50:00,28.8,19.0,25.73,NE,53,1.0,3.0,66,0.00,,,0.00,weatherlink.com 1.10,2013-12-22 19:50:00,
2013-12-22 13:04:00,27.5,19.0,25.73,ESE,111,3.0,6.0,70,0.00,,,0.00,weatherlink.com 1.10,2013-12-22 20:04:00,
2013-12-22 13:19:00,27.9,20.0,25.73,East,87,2.0,8.0,71,0.00,,,0.00,weatherlink.com 1.10,2013-12-22 20:19:00,
2013-12-22 13:34:00,27.4,20.0,25.73,ENE,75,6.0,10.0,75,0.00,,,0.00,weatherlink.com 1.10,2013-12-22 20:34:00,
2013-12-22 13:49:00,26.1,20.0,25.72,ESE,105,8.0,13.0,77,0.00,,,0.00,weatherlink.com 1.10,2013-12-22 20:49:00,
2013-12-22 14:04:00,25.1,20.0,25.73,East,82,10.0,12.0,80,0.00,,,0.00,weatherlink.com 1.10,2013-12-22 21:04:00,
2013-12-22 14:19:00,24.7,21.0,25.73,NE,49,7.0,11.0,84,0.00,,,0.00,weatherlink.com 1.10,2013-12-22 21:19:00,
2013-12-22 14:34:00,24.1,20.0,25.74,ENE,74,6.0,12.0,85,0.00,,,0.00,weatherlink.com 1.10,2013-12-22 21:34:00,
2013-12-22 14:49:00,23.5,21.0,25.75,NE,48,9.0,11.0,88,0.00,,,0.00,weatherlink.com 1.10,2013-12-22 21:49:00,
2013-12-22 15:04:00,23.0,21.0,25.76,NE,46,7.0,9.0,90,0.00,,,0.00,weatherlink.com 1.10,2013-12-22 22:04:00,
2013-12-22 15:19:00,22.9,21.0,25.76,NE,53,7.0,10.0,91,0.00,,,0.00,weatherlink.com 1.10,2013-12-22 22:19:00,
2013-12-22 15:34:00,22.6,20.0,25.77,ENE,58,8.0,11.0,91,0.00,,,0.00,weatherlink.com 1.10,2013-12-22 22:34:00,
2013-12-22 15:49:00,22.1,20.0,25.78,NE,35,7.0,11.0,91,0.00,,,0.00,weatherlink.com 1.10,2013-12-22 22:49:00,
2013-12-22 16:04:00,21.0,19.0,25.79,North,11,14.0,14.0,90,0.00,,,0.00,weatherlink.com 1.10,2013-12-22 23:04:00,
2013-12-22 16:19:00,19.7,18.0,25.79,NNE,33,8.0,13.0,91,0.00,,,0.00,weatherlink.com 1.10,2013-12-22 23:19:00,
2013-12-22 16:34:00,19.2,17.0,25.81,NNE,27,11.0,13.0,90,0.00,,,0.00,weatherlink.com 1.10,2013-12-22 23:34:00,
2013-12-22 16:49:00,18.4,16.0,25.82,NE,39,11.0,14.0,90,0.00,,,0.00,weatherlink.com 1.10,2013-12-22 23:49:00,
2013-12-22 17:04:00,17.3,15.0,25.83,WNW,299,12.0,17.0,90,0.00,,,0.00,weatherlink.com 1.10,2013-12-23 00:04:00,
2013-12-22 17:19:00,16.4,14.0,25.83,ENE,63,10.0,14.0,90,0.00,,,0.00,weatherlink.com 1.10,2013-12-23 00:19:00,
2013-12-22 17:34:00,15.5,13.0,25.85,ENE,58,9.0,14.0,90,0.00,,,0.00,weatherlink.com 1.10,2013-12-23 00:34:00,
2013-12-22 17:49:00,14.2,12.0,25.86,ENE,58,9.0,16.0,89,0.00,,,0.00,weatherlink.com 1.10,2013-12-23 00:49:00,
2013-12-22 18:04:00,13.1,11.0,25.86,NE,55,11.0,19.0,89,0.00,,,0.00,weatherlink.com 1.10,2013-12-23 01:04:00,
2013-12-22 18:19:00,12.8,10.0,25.87,ENE,65,11.0,17.0,89,0.00,,,0.00,weatherlink.com 1.10,2013-12-23 01:19:00,
2013-12-22 18:34:00,12.4,10.0,25.88,NE,48,15.0,15.0,89,0.00,,,0.00,weatherlink.com 1.10,2013-12-23 01:34:00,
2013-12-22 18:49:00,10.7,8.0,25.89,ENE,58,14.0,17.0,88,0.00,,,0.00,weatherlink.com 1.10,2013-12-23 01:49:00,
2013-12-22 19:05:00,10.0,7.0,25.90,NE,39,6.0,12.0,89,0.00,,,0.00,weatherlink.com 1.10,2013-12-23 02:05:00,
2013-12-22 19:20:00,9.5,6.0,25.91,NNE,32,8.0,13.0,87,0.00,,,0.00,weatherlink.com 1.10,2013-12-23 02:20:00,
2013-12-22 19:35:00,9.4,6.0,25.92,NNE,26,8.0,11.0,87,0.00,,,0.00,weatherlink.com 1.10,2013-12-23 02:35:00,
2013-12-22 19:50:00,8.7,5.0,25.93,WNW,287,8.0,13.0,86,0.00,,,0.00,weatherlink.com 1.10,2013-12-23 02:50:00,
2013-12-22 20:05:00,8.1,5.0,25.93,NNE,20,6.0,8.0,87,0.00,,,0.00,weatherlink.com 1.10,2013-12-23 03:05:00,
2013-12-22 20:20:00,7.7,4.0,25.94,North,11,10.0,10.0,86,0.00,,,0.00,weatherlink.com 1.10,2013-12-23 03:20:00,
2013-12-22 20:35:00,7.8,5.0,25.94,NNW,345,7.0,10.0,86,0.00,,,0.00,weatherlink.com 1.10,2013-12-23 03:35:00,
2013-12-22 20:50:00,6.4,3.0,25.95,North,4,3.0,10.0,85,0.00,,,0.00,weatherlink.com 1.10,2013-12-23 03:50:00,
2013-12-22 21:05:00,4.2,0.0,25.95,NW,322,1.0,6.0,84,0.00,,,0.00,weatherlink.com 1.10,2013-12-23 04:05:00,
2013-12-22 21:20:00,2.7,-1.0,25.95,NNE,26,2.0,4.0,84,0.00,,,0.00,weatherlink.com 1.10,2013-12-23 04:20:00,
2013-12-22 21:35:00,2.1,-1.0,25.96,NNE,20,2.0,6.0,85,0.00,,,0.00,weatherlink.com 1.10,2013-12-23 04:35:00,
2013-12-22 21:51:00,2.2,-1.0,25.97,NNE,31,0.0,2.0,85,0.00,,,0.00,weatherlink.com 1.10,2013-12-23 04:51:00,
2013-12-22 22:05:00,1.9,-2.0,25.97,North,355,0.0,1.0,84,0.00,,,0.00,weatherlink.com 1.10,2013-12-23 05:05:00,
2013-12-22 22:21:00,1.3,-2.0,25.97,North,352,0.0,1.0,84,0.00,,,0.00,weatherlink.com 1.10,2013-12-23 05:21:00,
2013-12-22 22:36:00,0.8,-3.0,25.98,NW,316,2.0,4.0,85,0.00,,,0.00,weatherlink.com 1.10,2013-12-23 05:36:00,
2013-12-22 22:51:00,1.0,-3.0,25.98,North,356,1.0,4.0,85,0.00,,,0.00,weatherlink.com 1.10,2013-12-23 05:51:00,
2013-12-22 23:06:00,-0.9,-4.0,25.98,NW,308,3.0,6.0,85,0.00,,,0.00,weatherlink.com 1.10,2013-12-23 06:06:00,
2013-12-22 23:21:00,-1.7,-5.0,25.98,NW,322,0.0,2.0,84,0.00,,,0.00,weatherlink.com 1.10,2013-12-23 06:21:00,
2013-12-22 23:36:00,-2.3,-6.0,25.98,NW,310,0.0,1.0,86,0.00,,,0.00,weatherlink.com 1.10,2013-12-23 06:36:00,
2013-12-22 23:51:00,-2.4,-6.0,25.98,WNW,302,2.0,3.0,86,0.00,,,0.00,weatherlink.com 1.10,2013-12-23 06:51:00,